Temperature
22 23 23 23 23 23 23 23 23 23 23 22 22 22 22 21 21 21 20 20 19 19 18 17 17 17 17 17 17 16 16 16 16 16 15 15 15 15 15 15 15 15 15 15
23 23 23 23 23 23 23 23 23 23 22 22 22 22 23 22 21 20 21 20 20 19 18 17 17 17 17 17 16 16 16 16 16 16 16 15 15 15 15 15 15 15 14 14
23 23 23 22 22 22 23 23 23 22 22 22 22 22 22 22 21 20 20 20 19 19 18 17 17 17 16 16 16 16 16 16 16 15 15 15 15 15 15 15 14 14 14 14
22 22 22 22 22 22 22 23 22 22 22 22 22 22 23 23 22 21 20 19 19 18 18 17 17 17 16 16 16 16 16 16 16 15 15 15 15 15 15 15 14 14 14 14
22 22 22 22 22 22 22 22 22 22 22 22 22 22 23 22 22 21 21 19 19 18 18 17 17 16 16 16 16 16 16 16 15 15 15 15 15 15 14 14 14 14 14 14
22 22 22 22 22 22 22 22 21 22 22 21 22 22 22 22 22 22 21 20 19 18 17 17 16 16 16 16 16 16 15 15 15 15 15 15 15 14 14 14 14 14 14 14
21 21 21 21 21 21 22 22 21 21 21 21 22 21 22 22 22 21 21 20 18 18 17 16 16 16 16 16 16 15 15 15 15 15 15 15 15 14 14 14 14 14 14 13
21 21 21 21 21 21 22 22 21 20 21 21 21 21 22 21 20 20 19 19 18 17 17 16 16 15 15 15 15 15 15 15 15 15 15 15 14 14 14 14 14 13 13 13
21 21 21 20 21 21 21 21 21 21 21 21 21 21 21 21 20 20 19 18 18 17 16 16 15 15 15 15 15 15 15 15 15 15 15 14 14 14 14 14 14 13 13 13
21 20 20 20 20 20 21 21 21 20 20 20 21 21 21 20 20 20 19 18 17 16 16 16 15 15 15 15 15 14 14 14 15 14 14 14 14 14 14 14 14 13 13 13
20 20 20 20 20 20 20 20 20 21 20 20 20 21 21 21 20 20 19 18 17 16 16 15 15 15 15 14 14 14 14 14 14 14 14 14 14 14 14 14 13 13 13 13
19 20 20 20 20 19 20 20 20 20 20 20 20 21 21 20 20 19 18 18 17 16 15 15 15 14 14 14 14 14 14 14 14 14 14 14 14 13 13 13 13 13 13 13
18 19 19 19 19 19 19 19 20 20 20 19 19 20 20 20 19 19 18 17 16 16 15 15 14 14 14 14 14 14 14 14 14 14 13 13 13 13 13 13 13 13 13 13
17 19 19 19 19 19 19 18 19 19 19 19 19 20 20 19 19 18 17 17 16 15 15 14 14 14 14 14 14 14 14 13 13 13 13 13 13 13 13 13 13 13 12 12
17 18 18 18 18 18 18 18 18 18 19 19 19 19 20 19 19 18 17 16 15 15 14 14 14 14 13 13 13 13 13 13 13 13 13 13 13 13 13 13 12 12 12 12
17 17 17 17 17 17 17 18 18 18 18 18 19 19 20 19 18 17 17 16 15 15 14 14 14 13 13 13 13 13 13 13 13 13 13 13 12 12 12 12 12 12 12 11
16 16 16 17 17 17 17 18 18 18 18 18 18 19 19 18 18 17 16 15 15 14 14 14 14 13 13 13 13 13 13 13 12 12 12 12 12 12 12 12 12 11 11 11
16 16 16 16 16 16 18 18 18 17 18 18 18 18 18 17 17 16 15 15 15 14 14 13 13 13 13 13 12 12 12 12 12 12 12 12 12 12 12 11 11 11 11 11
15 15 15 15 16 17 17 17 17 17 17 18 17 17 17 16 16 16 15 14 14 13 13 13 13 13 12 12 12 12 12 12 12 12 12 12 11 11 11 11 11 11 11 11
14 15 15 15 15 16 17 16 16 16 16 17 16 17 16 16 17 17 14 13 13 13 13 13 12 12 12 12 12 12 12 11 11 11 11 11 11 11 11 11 11 11 10 10
14 14 14 14 15 16 16 15 15 15 16 15 15 15 15 16 16 15 13 13 13 12 12 12 12 12 12 12 11 11 11 11 11 11 11 11 11 11 11 10 10 10 10 10
15 14 14 14 14 15 15 14 15 16 15 14 14 14 14 14 13 13 13 12 12 12 12 12 11 11 11 11 11 11 11 11 11 10 10 10 10 10 10 10 10 10 10 10
14 14 14 14 15 14 13 14 13 13 13 13 13 13 12 12 12 12 12 12 12 11 11 11 11 11 11 11 10 10 10 10 10 10 10 10 10 10 10 10 10 9 9 9
13 13 13 13 14 14 12 12 12 12 12 12 12 12 12 12 12 11 11 11 11 11 11 10 10 10 10 10 10 10 10 10 9 9 9 9 9 9 9 9 9 9 9 9
13 12 12 13 14 13 12 12 12 11 11 11 11 11 11 11 11 11 11 11 10 10 10 10 10 10 10 10 9 9 9 9 9 9 9 9 9 9 9 9 9 9 8 8
12 12 12 13 13 13 13 12 11 11 11 11 10 10 10 10 10 10 10 10 10 10 9 9 9 9 9 9 9 9 9 9 9 9 9 9 8 8 8 8 8 8 8 8
Wind_Speed
6 7 7 7 8 5 5 6 6 4 4 6 7 8 6 6 8 9 9 8 8 8 8 8 7 7 7 6 6 6 6 6 5 4 4 3 3 3 2 2 2 2 1 1
7 9 7 5 6 6 7 7 6 3 3 5 6 7 6 6 8 9 9 9 9 9 8 8 7 7 7 7 6 6 6 6 6 4 4 3 3 3 2 2 2 2 2 2
9 4 5 7 7 8 8 8 6 4 2 5 5 6 6 5 6 7 8 8 8 8 9 9 8 8 7 7 6 6 6 6 6 6 4 4 3 3 3 3 2 2 2 2
6 5 6 8 8 8 8 6 6 6 6 4 5 5 4 5 5 5 6 6 7 8 9 9 9 8 8 7 6 6 6 5 6 6 6 6 4 4 3 3 3 3 2 2
5 5 7 8 7 7 5 3 6 7 8 7 7 6 3 3 4 4 5 5 6 7 8 9 9 8 8 7 6 6 5 5 5 6 6 6 5 4 3 3 3 3 2 2
4 3 4 5 4 5 5 5 5 7 7 8 7 7 3 3 4 3 3 4 5 5 7 7 8 7 7 6 6 5 6 5 4 5 6 7 6 5 5 4 4 3 3 3
6 5 3 3 5 6 7 7 5 5 6 5 3 6 4 1 1 2 2 3 4 4 5 6 7 7 7 6 6 6 6 6 5 6 7 7 7 7 6 5 4 4 3 3
7 6 5 4 5 6 8 9 6 5 5 4 4 6 2 1 1 1 1 2 3 4 4 5 6 6 6 6 6 6 6 6 6 5 6 7 7 5 5 5 5 5 4 4
5 5 3 2 3 5 7 8 6 7 6 6 5 4 3 1 1 1 1 2 3 3 4 5 5 6 6 6 7 6 6 6 5 6 6 6 6 6 6 6 5 4 4 4
4 5 4 3 4 2 4 4 5 6 5 6 5 6 3 3 2 1 1 1 2 2 3 4 5 5 6 6 6 6 6 5 5 5 5 4 6 6 6 6 5 5 5 4
5 5 4 5 6 6 5 6 6 6 6 6 6 3 1 2 2 1 1 1 1 2 2 3 4 5 5 5 6 6 6 5 5 5 5 5 5 5 5 5 5 5 5 5
4 5 6 5 3 4 7 7 8 8 7 8 8 4 2 1 1 1 1 0 0 1 2 3 3 4 5 5 6 6 6 5 5 5 4 5 5 5 5 5 5 5 5 5
2 5 6 6 6 5 6 7 8 8 8 9 10 5 3 2 2 1 1 1 0 1 2 2 3 4 4 5 5 6 6 5 5 5 5 5 5 5 5 5 4 4 5 5
3 6 8 8 4 3 6 6 8 10 10 11 12 10 6 5 5 3 2 1 1 2 2 2 3 4 4 4 4 4 5 5 5 5 5 6 6 5 5 4 4 4 4 4
3 6 7 8 7 6 8 8 9 12 13 13 12 11 9 7 5 4 3 2 2 2 3 3 3 3 4 4 4 4 5 5 5 5 5 5 5 5 5 4 4 4 4 4
3 5 6 8 7 7 10 11 12 12 12 13 13 12 8 6 5 4 4 3 3 3 3 4 4 3 4 4 4 4 4 4 5 5 5 5 5 5 5 4 5 4 4 4
4 5 6 8 7 8 11 12 12 11 11 11 12 10 6 6 6 6 5 5 5 4 4 4 4 4 4 4 4 4 4 4 5 5 5 5 5 5 5 4 4 5 5 4
7 7 5 6 6 9 5 2 7 9 10 10 9 7 6 6 6 6 6 5 5 4 4 4 4 4 4 4 3 4 4 4 5 5 5 5 5 5 5 5 4 4 4 4
8 7 5 5 8 8 6 3 4 7 8 6 7 6 4 3 4 5 3 4 4 4 4 4 4 4 3 3 4 4 4 4 4 5 5 5 5 5 5 5 5 4 4 4
5 7 6 6 7 6 2 1 2 4 7 3 4 5 4 4 6 4 2 3 4 3 3 3 3 3 3 3 3 4 4 4 4 4 5 5 5 5 5 5 5 4 4 4
5 6 8 9 8 6 2 0 2 5 2 3 3 4 5 6 6 3 3 3 3 3 3 3 3 3 3 3 4 5 4 4 4 3 4 5 5 5 5 5 4 4 4 4
5 5 7 6 7 6 2 2 3 4 4 3 3 4 5 5 5 4 3 2 2 3 3 3 3 3 3 3 4 4 4 3 3 3 4 5 5 4 4 4 4 4 4 4
6 5 4 5 4 1 2 3 4 5 6 5 5 5 5 5 5 4 4 3 3 3 3 3 3 3 3 3 4 4 3 3 3 3 4 4 5 4 4 5 5 4 4 4
5 3 5 6 7 6 5 6 5 6 7 7 6 6 5 6 5 5 4 3 3 3 3 3 3 3 3 3 4 3 3 3 3 4 4 3 4 4 4 4 4 4 4 4
6 4 6 9 8 7 7 6 6 6 6 5 5 5 6 5 5 5 4 4 3 3 3 3 4 4 4 3 3 3 3 3 3 4 3 3 3 4 4 3 3 4 4 4
7 8 8 8 7 7 7 6 6 6 5 5 5 5 5 5 5 5 4 4 3 3 4 4 4 4 4 4 3 3 3 3 4 4 4 4 3 4 3 3 3 2 4 3
Wind_Direction
191 205 209 210 220 244 234 231 234 230 206 225 241 254 249 215 214 219 212 203 199 198 193 185 186 189 189 189 193 187 184 181 175 174 182 182 178 174 164 158 150 142 131 113
193 215 219 218 212 219 227 235 235 217 210 237 257 260 252 227 222 221 217 209 205 201 192 185 188 189 195 193 193 194 194 187 185 186 186 187 185 180 158 152 160 164 156 143
212 207 202 205 204 216 229 239 240 244 236 224 258 251 226 218 211 215 222 220 211 205 200 191 191 194 196 195 193 194 197 193 190 186 183 173 168 173 167 171 170 170 160 157
217 207 196 210 221 232 235 236 241 235 241 240 238 266 231 206 202 205 210 210 209 207 206 196 192 194 197 199 195 194 190 193 189 185 189 188 192 193 194 185 172 170 164 158
200 203 210 223 229 229 236 230 234 238 248 255 233 255 245 187 222 222 215 210 208 205 202 198 195 197 199 196 193 195 189 191 193 191 192 202 204 204 191 179 169 176 167 167
214 201 226 235 227 216 199 205 214 225 240 246 236 240 257 209 243 241 214 207 202 197 195 195 193 194 195 192 188 188 189 187 191 197 197 206 204 201 192 190 186 192 183 183
211 203 198 219 206 193 213 226 230 225 227 243 221 238 251 324 284 256 236 200 189 181 179 181 183 186 187 187 188 189 189 187 192 203 204 206 207 205 203 203 201 205 201 196
219 207 193 212 232 224 218 230 241 255 254 251 215 238 241 4 298 264 234 169 152 157 169 175 181 185 184 184 188 192 195 196 196 205 208 206 207 209 211 212 212 212 215 210
226 211 167 203 233 234 215 224 249 264 272 263 233 233 252 200 202 170 148 147 153 162 169 175 179 182 182 185 188 193 195 199 200 206 211 208 209 210 213 216 216 218 216 207
249 233 198 187 185 192 254 214 215 233 250 250 244 240 236 198 190 168 171 164 147 159 174 178 183 187 186 189 192 193 195 197 199 206 213 213 217 215 217 217 212 211 212 205
242 239 213 201 218 224 200 211 227 233 246 257 257 239 187 219 236 246 222 199 178 175 182 186 184 188 188 188 191 194 198 202 203 208 210 212 216 221 218 216 213 212 212 208
231 248 241 226 218 258 237 232 230 237 240 245 262 256 123 176 281 293 302 325 194 190 180 183 183 184 186 188 192 196 202 206 209 210 210 212 206 212 216 216 213 207 206 208
230 240 241 218 200 203 223 228 233 243 252 248 249 242 154 214 259 276 294 316 283 201 172 170 183 187 192 197 200 203 207 212 210 210 214 214 209 210 214 216 213 209 205 208
267 244 247 251 266 233 234 229 229 232 243 249 249 258 253 260 274 286 286 272 245 223 197 187 199 200 199 203 205 208 209 211 209 206 212 216 214 210 213 211 208 204 202 205
258 252 250 259 265 255 255 250 238 239 249 255 261 262 269 267 265 269 261 246 231 229 221 215 219 217 211 208 210 214 215 211 207 205 209 215 214 206 204 200 202 202 200 204
258 256 256 251 249 252 257 253 247 245 250 253 259 262 268 265 253 251 242 235 238 239 238 234 232 229 223 219 218 219 223 216 208 205 207 207 208 196 197 198 195 193 194 199
239 251 259 256 249 257 256 247 238 238 239 246 253 263 261 253 247 251 247 236 240 243 244 243 242 239 234 229 223 223 220 213 208 206 204 199 201 192 193 193 192 192 195 197
240 241 250 261 249 243 254 250 241 243 251 250 254 263 261 263 266 262 250 241 245 250 250 250 251 249 242 233 226 222 218 215 209 207 202 197 198 195 189 190 195 200 201 200
230 229 235 245 250 257 255 248 237 241 253 250 251 256 261 275 265 254 244 254 256 257 259 257 250 246 238 231 224 214 214 215 209 205 203 199 200 195 193 195 201 206 204 207
198 216 229 237 250 252 257 92 273 252 251 237 249 248 244 247 258 264 270 261 266 267 264 264 252 237 228 227 223 215 213 214 215 211 209 201 202 199 204 206 207 208 208 216
188 204 222 236 246 260 309 357 210 233 293 358 268 249 243 257 280 291 282 273 272 269 266 259 240 231 227 222 222 221 218 221 224 216 210 204 203 206 210 208 206 209 213 219
224 221 220 225 235 247 124 174 229 309 339 317 292 282 276 283 289 280 281 280 272 270 264 253 239 233 229 221 220 227 228 227 223 210 207 205 202 201 203 204 207 209 210 218
233 240 243 231 248 315 216 260 313 315 305 304 298 291 281 280 278 275 278 280 277 273 263 252 238 231 231 224 225 230 232 224 213 207 210 209 202 199 203 206 208 209 212 221
232 239 242 252 257 267 271 278 284 291 294 296 294 283 271 274 276 273 272 277 277 272 261 255 238 231 234 231 229 229 224 215 206 206 209 209 209 210 208 208 212 215 218 226
249 222 237 252 268 279 267 271 282 297 297 293 286 276 271 273 269 265 266 270 272 271 263 252 244 239 236 229 226 224 219 210 211 215 211 209 214 205 211 212 217 227 231 235
233 232 240 257 272 274 283 295 291 288 286 287 288 287 279 268 264 264 266 270 271 270 264 256 249 242 241 237 234 226 225 224 226 225 221 215 215 213 212 218 224 215 232 248
Height
1494 1494 1494 1493 1493 1494 1495 1497 1499 1500 1501 1503 1502 1502 1502 1505 1507 1508 1509 1511 1514 1516 1518 1520 1522 1523 1525 1527 1528 1529 1530 1531 1532 1533 1534 1535 1536 1536 1536 1537 1537 1537 1537 1537
1493 1493 1492 1493 1494 1495 1496 1498 1498 1499 1500 1502 1500 1500 1498 1501 1503 1505 1506 1508 1511 1513 1516 1518 1519 1521 1523 1525 1526 1528 1529 1530 1531 1532 1533 1534 1535 1535 1536 1536 1536 1537 1537 1537
1490 1491 1492 1494 1495 1496 1495 1497 1497 1499 1500 1499 1500 1499 1496 1497 1500 1503 1504 1506 1508 1510 1512 1515 1517 1519 1521 1522 1524 1525 1526 1528 1529 1530 1532 1532 1533 1534 1535 1535 1535 1536 1536 1536
1490 1491 1493 1493 1493 1494 1496 1494 1496 1498 1500 1499 1500 1501 1492 1492 1496 1499 1501 1503 1505 1507 1510 1512 1514 1516 1518 1520 1522 1523 1525 1526 1527 1528 1530 1531 1532 1533 1534 1534 1534 1535 1535 1535
1490 1490 1492 1493 1492 1493 1494 1495 1495 1496 1496 1498 1496 1499 1491 1491 1494 1495 1498 1500 1502 1505 1507 1509 1511 1513 1516 1518 1519 1521 1522 1524 1525 1526 1527 1529 1530 1531 1532 1533 1533 1534 1534 1534
1489 1491 1491 1491 1492 1493 1494 1495 1496 1495 1495 1502 1494 1497 1495 1489 1491 1492 1495 1498 1500 1502 1504 1506 1509 1511 1513 1515 1517 1518 1520 1522 1523 1524 1525 1527 1528 1529 1530 1531 1532 1532 1533 1533
1490 1490 1491 1492 1492 1493 1494 1496 1502 1503 1503 1498 1491 1495 1493 1487 1490 1492 1494 1496 1498 1500 1502 1504 1506 1508 1510 1512 1514 1516 1517 1519 1520 1522 1523 1524 1526 1527 1528 1529 1530 1530 1531 1531
1491 1491 1489 1490 1490 1490 1490 1492 1501 1507 1502 1495 1494 1495 1489 1489 1491 1493 1494 1495 1497 1498 1500 1502 1504 1506 1507 1509 1511 1513 1515 1516 1518 1519 1520 1522 1523 1525 1526 1526 1527 1528 1529 1529
1487 1490 1489 1490 1490 1489 1490 1491 1490 1495 1495 1498 1492 1490 1489 1489 1490 1492 1493 1494 1496 1497 1499 1500 1502 1504 1505 1507 1508 1510 1512 1514 1515 1517 1518 1519 1521 1522 1523 1524 1525 1525 1526 1526
1485 1490 1489 1491 1491 1492 1490 1489 1493 1496 1502 1501 1494 1491 1489 1488 1488 1490 1491 1493 1495 1496 1498 1499 1500 1502 1503 1505 1507 1508 1510 1511 1512 1514 1515 1516 1518 1519 1520 1521 1521 1522 1523 1523
1488 1489 1489 1489 1489 1489 1492 1492 1491 1491 1492 1497 1497 1492 1483 1485 1487 1489 1490 1492 1494 1495 1496 1497 1498 1500 1501 1503 1504 1506 1508 1509 1510 1511 1512 1513 1514 1516 1517 1518 1518 1519 1519 1520
1489 1488 1487 1487 1488 1489 1488 1488 1489 1495 1493 1491 1493 1492 1483 1486 1488 1489 1491 1492 1493 1494 1495 1496 1497 1498 1500 1501 1502 1504 1505 1507 1508 1508 1509 1510 1511 1513 1514 1514 1515 1515 1516 1517
1491 1490 1491 1489 1492 1490 1489 1488 1488 1488 1489 1491 1493 1491 1484 1486 1487 1489 1490 1491 1492 1493 1494 1495 1496 1497 1498 1499 1500 1502 1503 1504 1505 1505 1506 1507 1508 1509 1510 1511 1512 1512 1513 1514
1493 1488 1489 1491 1486 1486 1489 1490 1489 1488 1489 1489 1487 1485 1483 1484 1486 1488 1489 1490 1491 1492 1492 1493 1494 1495 1496 1497 1498 1499 1500 1501 1502 1502 1503 1504 1505 1506 1507 1508 1508 1509 1510 1510
1493 1489 1486 1486 1486 1487 1488 1488 1488 1487 1484 1486 1482 1483 1481 1482 1485 1487 1488 1489 1490 1491 1491 1492 1492 1493 1494 1494 1495 1496 1497 1498 1499 1499 1500 1501 1501 1503 1504 1505 1505 1506 1507 1508
1492 1490 1488 1488 1487 1486 1487 1485 1485 1485 1484 1483 1482 1481 1480 1482 1484 1486 1487 1487 1488 1489 1489 1490 1490 1491 1491 1492 1493 1494 1494 1495 1496 1496 1497 1498 1499 1500 1501 1501 1502 1503 1504 1505
1492 1490 1491 1487 1485 1486 1485 1479 1480 1481 1480 1480 1481 1479 1479 1481 1482 1484 1485 1485 1486 1486 1487 1488 1488 1489 1489 1490 1490 1490 1491 1492 1493 1494 1494 1495 1495 1497 1498 1499 1500 1500 1501 1502
1491 1490 1490 1487 1487 1491 1477 1475 1476 1478 1477 1477 1477 1478 1479 1480 1481 1482 1483 1483 1484 1484 1485 1485 1486 1486 1487 1487 1488 1488 1489 1489 1490 1491 1491 1492 1493 1494 1495 1496 1497 1498 1499 1499
1490 1490 1490 1488 1485 1479 1475 1476 1477 1477 1475 1475 1476 1477 1479 1480 1480 1480 1481 1481 1482 1482 1483 1483 1483 1484 1484 1484 1485 1485 1486 1486 1487 1487 1488 1489 1490 1491 1492 1493 1494 1495 1496 1497
1490 1489 1489 1488 1488 1483 1475 1476 1477 1478 1475 1474 1475 1476 1478 1478 1476 1476 1478 1479 1480 1480 1480 1480 1480 1481 1481 1482 1482 1482 1483 1483 1483 1484 1485 1486 1487 1488 1490 1490 1491 1492 1493 1494
1487 1488 1488 1486 1485 1477 1475 1477 1478 1480 1475 1475 1475 1476 1477 1476 1476 1477 1477 1477 1477 1477 1477 1477 1477 1478 1478 1478 1479 1479 1480 1480 1480 1481 1482 1483 1484 1485 1487 1488 1488 1489 1490 1491
1481 1482 1482 1482 1484 1481 1477 1477 1477 1475 1476 1475 1475 1475 1476 1475 1475 1475 1474 1474 1474 1474 1474 1474 1475 1475 1475 1475 1476 1475 1476 1477 1477 1478 1478 1479 1481 1482 1483 1484 1485 1486 1487 1487
1480 1479 1477 1478 1477 1476 1476 1477 1477 1477 1476 1475 1474 1474 1474 1473 1473 1473 1472 1472 1472 1472 1472 1472 1472 1471 1472 1472 1473 1473 1473 1474 1474 1475 1476 1476 1477 1478 1480 1481 1482 1483 1483 1484
1478 1480 1479 1477 1473 1475 1475 1475 1475 1475 1474 1473 1473 1472 1472 1471 1471 1470 1470 1470 1469 1469 1469 1469 1469 1468 1469 1469 1469 1470 1470 1471 1471 1472 1472 1473 1474 1475 1476 1477 1478 1479 1479 1480
1477 1478 1476 1474 1473 1473 1473 1473 1473 1472 1471 1470 1470 1470 1470 1469 1468 1468 1468 1467 1467 1467 1466 1466 1466 1466 1466 1466 1466 1467 1467 1468 1468 1469 1469 1470 1471 1472 1473 1473 1474 1475 1475 1476
1475 1475 1474 1471 1471 1471 1471 1470 1470 1469 1468 1468 1467 1467 1466 1466 1465 1465 1465 1465 1464 1464 1463 1463 1463 1463 1463 1463 1463 1464 1464 1465 1465 1466 1466 1467 1467 1468 1469 1469 1470 1470 1471 1471